| time (UTC) | temp C | wind direction | speed KPH | gust KPH | rain 1hr cm | rain 24hr cm | rain mn cm | humidity % | barometer mb |
| 20260504232003 | 16 | 173 | 3.2 | 14.5 | 0.00 | 0.00 | 0.00 | 56 | 1008.7 |
| 20260504231503 | 16 | 0 | 0.0 | 11.3 | 0.00 | 0.00 | 0.00 | 55 | 1008.6 |
| 20260504231003 | 16 | 0 | 0.0 | 8.0 | 0.00 | 0.00 | 0.00 | 54 | 1008.7 |
| 20260504230504 | 16 | 0 | 0.0 | 8.0 | 0.00 | 0.00 | 0.00 | 54 | 1008.6 |
| 20260504230003 | 16 | 141 | 1.6 | 16.1 | 0.00 | 0.00 | 0.00 | 53 | 1008.6 |
| 20260504225503 | 17 | 142 | 1.6 | 16.1 | 0.00 | 0.00 | 0.00 | 52 | 1008.5 |
| 20260504225003 | 17 | 0 | 0.0 | 6.4 | 0.00 | 0.00 | 0.00 | 51 | 1008.5 |
| 20260504224503 | 17 | 163 | 1.6 | 9.7 | 0.00 | 0.00 | 0.00 | 51 | 1008.5 |
| 20260504224003 | 17 | 159 | 3.2 | 9.7 | 0.00 | 0.00 | 0.00 | 50 | 1008.5 |
| 20260504223503 | 17 | 161 | 3.2 | 17.7 | 0.00 | 0.00 | 0.00 | 50 | 1008.5 |
| 20260504223003 | 17 | 169 | 3.2 | 17.7 | 0.00 | 0.00 | 0.00 | 49 | 1008.5 |
| 20260504222503 | 17 | 171 | 3.2 | 14.5 | 0.00 | 0.00 | 0.00 | 48 | 1008.5 |
| 20260504222003 | 17 | 179 | 3.2 | 12.9 | 0.00 | 0.00 | 0.00 | 47 | 1008.4 |
| 20260504221503 | 18 | 184 | 3.2 | 12.9 | 0.00 | 0.00 | 0.00 | 46 | 1008.4 |
| 20260504221003 | 18 | 180 | 1.6 | 9.7 | 0.00 | 0.00 | 0.00 | 46 | 1008.3 |
| 20260504220717 | 18 | 160 | 1.6 | 17.7 | 0.00 | 0.00 | 0.00 | 45 | 1008.4 |
| 20260504220218 | 18 | 173 | 1.6 | 17.7 | 0.00 | 0.00 | 0.00 | 43 | 1008.4 |
| 20260504215503 | 18 | 165 | 3.2 | 24.1 | 0.00 | 0.00 | 0.00 | 41 | 1008.4 |
| 20260504215218 | 18 | 162 | 3.2 | 24.1 | 0.00 | 0.00 | 0.00 | 41 | 1008.4 |
| 20260504214503 | 18 | 175 | 4.8 | 27.4 | 0.00 | 0.00 | 0.00 | 41 | 1008.4 |
| 20260504214003 | 19 | 182 | 6.4 | 29.0 | 0.00 | 0.00 | 0.00 | 40 | 1008.6 |
| 20260504213503 | 20 | 174 | 3.2 | 29.0 | 0.00 | 0.00 | 0.00 | 40 | 1008.5 |
| 20260504213003 | 20 | 145 | 3.2 | 19.3 | 0.00 | 0.00 | 0.00 | 39 | 1008.5 |
| 20260504212503 | 20 | 152 | 3.2 | 17.7 | 0.00 | 0.00 | 0.00 | 39 | 1008.3 |
| 20260504212003 | 20 | 166 | 3.2 | 22.5 | 0.00 | 0.00 | 0.00 | 39 | 1008.3 |
| 20260504211716 | 20 | 166 | 1.6 | 22.5 | 0.00 | 0.00 | 0.00 | 39 | 1008.4 |
| 20260504211003 | 21 | 159 | 4.8 | 22.5 | 0.00 | 0.00 | 0.00 | 38 | 1008.3 |
| 20260504210503 | 21 | 182 | 4.8 | 22.5 | 0.00 | 0.00 | 0.00 | 38 | 1008.3 |
| 20260504210003 | 21 | 200 | 4.8 | 17.7 | 0.00 | 0.00 | 0.00 | 39 | 1008.2 |
| 20260504205503 | 21 | 193 | 3.2 | 19.3 | 0.00 | 0.00 | 0.00 | 39 | 1008.3 |
| 20260504205003 | 21 | 172 | 4.8 | 20.9 | 0.00 | 0.00 | 0.00 | 39 | 1008.1 |
| 20260504204503 | 21 | 171 | 4.8 | 20.9 | 0.00 | 0.00 | 0.00 | 36 | 1008.3 |
| 20260504204217 | 21 | 159 | 3.2 | 16.1 | 0.00 | 0.00 | 0.00 | 36 | 1008.3 |
| 20260504203503 | 21 | 166 | 6.4 | 25.7 | 0.00 | 0.00 | 0.00 | 36 | 1008.3 |
| 20260504203217 | 21 | 173 | 4.8 | 25.7 | 0.00 | 0.00 | 0.00 | 36 | 1008.2 |
| 20260504202503 | 21 | 146 | 4.8 | 25.7 | 0.00 | 0.00 | 0.00 | 35 | 1008.2 |
| 20260504202003 | 21 | 161 | 4.8 | 25.7 | 0.00 | 0.00 | 0.00 | 35 | 1008.3 |
| 20260504201503 | 21 | 167 | 6.4 | 22.5 | 0.00 | 0.00 | 0.00 | 35 | 1008.1 |
| 20260504201003 | 21 | 172 | 4.8 | 22.5 | 0.00 | 0.00 | 0.00 | 34 | 1008.0 |
| 20260504200503 | 21 | 195 | 3.2 | 24.1 | 0.00 | 0.00 | 0.00 | 34 | 1008.1 |
| 20260504200003 | 21 | 171 | 4.8 | 24.1 | 0.00 | 0.00 | 0.00 | 35 | 1008.1 |
| 20260504195503 | 21 | 152 | 4.8 | 25.7 | 0.00 | 0.00 | 0.00 | 34 | 1008.3 |
| 20260504195003 | 21 | 166 | 4.8 | 25.7 | 0.00 | 0.00 | 0.00 | 35 | 1008.4 |
| 20260504194503 | 21 | 176 | 6.4 | 22.5 | 0.00 | 0.00 | 0.00 | 36 | 1008.3 |
| 20260504194003 | 21 | 160 | 6.4 | 22.5 | 0.00 | 0.00 | 0.00 | 34 | 1008.3 |
| 20260504193503 | 21 | 162 | 6.4 | 22.5 | 0.00 | 0.00 | 0.00 | 33 | 1008.2 |
| 20260504193003 | 22 | 168 | 6.4 | 22.5 | 0.00 | 0.00 | 0.00 | 34 | 1008.2 |
| 20260504192503 | 22 | 167 | 6.4 | 24.1 | 0.00 | 0.00 | 0.00 | 34 | 1008.3 |
| 20260504192003 | 22 | 184 | 4.8 | 24.1 | 0.00 | 0.00 | 0.00 | 33 | 1008.3 |
| 20260504191503 | 22 | 160 | 3.2 | 19.3 | 0.00 | 0.00 | 0.00 | 33 | 1008.4 |
| 20260504191003 | 22 | 163 | 4.8 | 20.9 | 0.00 | 0.00 | 0.00 | 32 | 1008.1 |
| 20260504190504 | 22 | 180 | 4.8 | 22.5 | 0.00 | 0.00 | 0.00 | 33 | 1008.1 |
| 20260504190003 | 22 | 179 | 3.2 | 24.1 | 0.00 | 0.00 | 0.00 | 33 | 1008.3 |
| 20260504185503 | 22 | 168 | 3.2 | 24.1 | 0.00 | 0.00 | 0.00 | 31 | 1008.5 |
| 20260504185003 | 22 | 182 | 4.8 | 19.3 | 0.00 | 0.00 | 0.00 | 32 | 1008.4 |
| 20260504184503 | 21 | 185 | 4.8 | 19.3 | 0.00 | 0.00 | 0.00 | 31 | 1008.3 |
| 20260504184003 | 22 | 181 | 3.2 | 17.7 | 0.00 | 0.00 | 0.00 | 30 | 1008.5 |
| 20260504183503 | 21 | 176 | 3.2 | 22.5 | 0.00 | 0.00 | 0.00 | 30 | 1008.4 |
| 20260504183003 | 21 | 168 | 6.4 | 29.0 | 0.00 | 0.00 | 0.00 | 30 | 1008.6 |
| 20260504182503 | 21 | 157 | 6.4 | 29.0 | 0.00 | 0.00 | 0.00 | 31 | 1008.7 |
| 20260504182003 | 21 | 169 | 4.8 | 22.5 | 0.00 | 0.00 | 0.00 | 31 | 1008.6 |
| 20260504181503 | 21 | 195 | 6.4 | 22.5 | 0.00 | 0.00 | 0.00 | 30 | 1008.7 |
| 20260504181003 | 21 | 185 | 6.4 | 22.5 | 0.00 | 0.00 | 0.00 | 31 | 1008.8 |
| 20260504180503 | 21 | 178 | 4.8 | 24.1 | 0.00 | 0.00 | 0.00 | 31 | 1008.9 |
| 20260504180003 | 21 | 168 | 4.8 | 27.4 | 0.00 | 0.00 | 0.00 | 30 | 1008.8 |
| 20260504175503 | 21 | 158 | 4.8 | 27.4 | 0.00 | 0.00 | 0.00 | 31 | 1009.0 |
| 20260504175003 | 21 | 160 | 6.4 | 24.1 | 0.00 | 0.00 | 0.00 | 30 | 1009.1 |
| 20260504174503 | 21 | 164 | 6.4 | 32.2 | 0.00 | 0.00 | 0.00 | 30 | 1009.1 |
| 20260504174003 | 21 | 161 | 4.8 | 32.2 | 0.00 | 0.00 | 0.00 | 30 | 1009.2 |
| 20260504173717 | 21 | 159 | 4.8 | 32.2 | 0.00 | 0.00 | 0.00 | 29 | 1009.1 |
| 20260504173218 | 21 | 163 | 4.8 | 32.2 | 0.00 | 0.00 | 0.00 | 30 | 1009.2 |
| 20260504172503 | 21 | 154 | 6.4 | 33.8 | 0.00 | 0.00 | 0.00 | 31 | 1009.2 |
| 20260504172003 | 21 | 142 | 4.8 | 25.7 | 0.00 | 0.00 | 0.00 | 29 | 1009.1 |
| 20260504171503 | 21 | 143 | 6.4 | 27.4 | 0.00 | 0.00 | 0.00 | 30 | 1009.2 |
| 20260504171003 | 21 | 147 | 6.4 | 30.6 | 0.00 | 0.00 | 0.00 | 29 | 1009.1 |
| 20260504170503 | 21 | 161 | 6.4 | 30.6 | 0.00 | 0.00 | 0.00 | 30 | 1009.3 |
| 20260504151003 | 19 | 141 | 8.0 | 30.6 | 0.00 | 0.00 | 0.00 | 30 | 1010.7 |
| 20260504150718 | 19 | 138 | 8.0 | 29.0 | 0.00 | 0.00 | 0.00 | 31 | 1010.2 |
| 20260504141003 | 18 | 146 | 4.8 | 25.7 | 0.00 | 0.00 | 0.00 | 35 | 1010.8 |
| 20260504140503 | 18 | 157 | 3.2 | 14.5 | 0.00 | 0.00 | 0.00 | 36 | 1010.8 |
| 20260504140217 | 17 | 160 | 3.2 | 14.5 | 0.00 | 0.00 | 0.00 | 36 | 1010.8 |
| 20260504130503 | 14 | 116 | 4.8 | 19.3 | 0.00 | 0.00 | 0.00 | 44 | 1011.3 |
| 20260504110503 | 2 | 0 | 0.0 | 0.0 | 0.00 | 0.00 | 0.00 | 90 | 1011.5 |
| 20260504100503 | 1 | 0 | 0.0 | 0.0 | 0.00 | 0.00 | 0.00 | 85 | 1011.4 |
| 20260504082003 | 2 | 0 | 0.0 | 0.0 | 0.00 | 0.00 | 0.00 | 85 | 1010.7 |
| 20260504081503 | 2 | 0 | 0.0 | 0.0 | 0.00 | 0.00 | 0.00 | 85 | 1010.8 |
| 20260504081003 | 2 | 0 | 0.0 | 0.0 | 0.00 | 0.00 | 0.00 | 85 | 1010.8 |
| 20260504080503 | 2 | 0 | 0.0 | 0.0 | 0.00 | 0.00 | 0.00 | 85 | 1010.8 |
| 20260504080218 | 2 | 0 | 0.0 | 0.0 | 0.00 | 0.00 | 0.00 | 85 | 1010.8 |
| 20260504060217 | 1 | 0 | 0.0 | 0.0 | 0.00 | 0.00 | 0.00 | 81 | 1010.7 |
| 20260504050718 | 1 | 0 | 0.0 | 0.0 | 0.00 | 0.00 | 0.00 | 79 | 1010.6 |
| 20260504050003 | 1 | 0 | 0.0 | 0.0 | 0.00 | 0.00 | 0.00 | 78 | 1010.6 |
| 20260504045718 | 1 | 0 | 0.0 | 0.0 | 0.00 | 0.00 | 0.00 | 78 | 1010.6 |
| 20260504045003 | 2 | 0 | 0.0 | 0.0 | 0.00 | 0.00 | 0.00 | 78 | 1010.7 |
| 20260504044503 | 2 | 0 | 0.0 | 0.0 | 0.00 | 0.00 | 0.00 | 78 | 1010.7 |
| 20260504044003 | 2 | 0 | 0.0 | 0.0 | 0.00 | 0.00 | 0.00 | 77 | 1010.7 |
| 20260504043503 | 2 | 0 | 0.0 | 0.0 | 0.00 | 0.00 | 0.00 | 78 | 1010.8 |
| 20260504043003 | 2 | 0 | 0.0 | 0.0 | 0.00 | 0.00 | 0.00 | 78 | 1010.8 |
| 20260504042503 | 2 | 0 | 0.0 | 0.0 | 0.00 | 0.00 | 0.00 | 78 | 1010.8 |
| 20260504042003 | 2 | 0 | 0.0 | 0.0 | 0.00 | 0.00 | 0.00 | 75 | 1010.7 |
| 20260504041503 | 2 | 0 | 0.0 | 0.0 | 0.00 | 0.00 | 0.00 | 75 | 1010.7 |
| 20260504041003 | 2 | 0 | 0.0 | 0.0 | 0.00 | 0.00 | 0.00 | 76 | 1010.6 |
| 20260504040718 | 2 | 0 | 0.0 | 0.0 | 0.00 | 0.00 | 0.00 | 76 | 1010.5 |
| 20260504040003 | 2 | 0 | 0.0 | 0.0 | 0.00 | 0.00 | 0.00 | 73 | 1010.5 |
| 20260504035718 | 2 | 0 | 0.0 | 0.0 | 0.00 | 0.00 | 0.00 | 73 | 1010.5 |
| 20260504035217 | 2 | 0 | 0.0 | 0.0 | 0.00 | 0.00 | 0.00 | 73 | 1010.5 |
| 20260504034503 | 2 | 0 | 0.0 | 0.0 | 0.00 | 0.00 | 0.00 | 72 | 1010.5 |
| 20260504034003 | 2 | 0 | 0.0 | 0.0 | 0.00 | 0.00 | 0.00 | 72 | 1010.5 |
| 20260504033503 | 2 | 0 | 0.0 | 0.0 | 0.00 | 0.00 | 0.00 | 71 | 1010.4 |
| 20260504033003 | 3 | 0 | 0.0 | 0.0 | 0.00 | 0.00 | 0.00 | 71 | 1010.4 |
| 20260504032503 | 3 | 0 | 0.0 | 0.0 | 0.00 | 0.00 | 0.00 | 71 | 1010.4 |
| 20260504032003 | 3 | 0 | 0.0 | 0.0 | 0.00 | 0.00 | 0.00 | 70 | 1010.4 |
| 20260504031503 | 3 | 0 | 0.0 | 0.0 | 0.00 | 0.00 | 0.00 | 70 | 1010.3 |
| 20260504031003 | 3 | 0 | 0.0 | 0.0 | 0.00 | 0.00 | 0.00 | 70 | 1010.3 |
| 20260504030503 | 3 | 0 | 0.0 | 0.0 | 0.00 | 0.00 | 0.00 | 69 | 1010.3 |
| 20260504030003 | 3 | 0 | 0.0 | 0.0 | 0.00 | 0.00 | 0.00 | 68 | 1010.2 |
| 20260504025503 | 3 | 0 | 0.0 | 0.0 | 0.00 | 0.00 | 0.00 | 68 | 1010.2 |
| 20260504025216 | 3 | 0 | 0.0 | 0.0 | 0.00 | 0.00 | 0.00 | 68 | 1010.2 |
| 20260504024503 | 3 | 0 | 0.0 | 0.0 | 0.00 | 0.00 | 0.00 | 68 | 1010.2 |
| 20260504024003 | 3 | 0 | 0.0 | 0.0 | 0.00 | 0.00 | 0.00 | 67 | 1010.2 |
| 20260504023503 | 4 | 0 | 0.0 | 0.0 | 0.00 | 0.00 | 0.00 | 67 | 1010.2 |
| 20260504023003 | 4 | 0 | 0.0 | 0.0 | 0.00 | 0.00 | 0.00 | 67 | 1010.1 |
| 20260504022503 | 4 | 0 | 0.0 | 0.0 | 0.00 | 0.00 | 0.00 | 66 | 1010.2 |
| 20260504022003 | 4 | 0 | 0.0 | 0.0 | 0.00 | 0.00 | 0.00 | 66 | 1010.1 |
| 20260504021503 | 4 | 0 | 0.0 | 0.0 | 0.00 | 0.00 | 0.00 | 66 | 1010.1 |
| 20260504021218 | 4 | 0 | 0.0 | 0.0 | 0.00 | 0.00 | 0.00 | 66 | 1010.2 |
| 20260504020503 | 4 | 0 | 0.0 | 0.0 | 0.00 | 0.00 | 0.00 | 65 | 1010.1 |
| 20260504020218 | 4 | 0 | 0.0 | 0.0 | 0.00 | 0.00 | 0.00 | 65 | 1010.1 |
| 20260504015503 | 5 | 0 | 0.0 | 0.0 | 0.00 | 0.00 | 0.00 | 65 | 1010.0 |
| 20260504015003 | 5 | 0 | 0.0 | 0.0 | 0.00 | 0.00 | 0.00 | 64 | 1010.0 |
| 20260504014717 | 5 | 0 | 0.0 | 0.0 | 0.00 | 0.00 | 0.00 | 64 | 1009.9 |
| 20260504014003 | 5 | 0 | 0.0 | 0.0 | 0.00 | 0.00 | 0.00 | 63 | 1009.9 |
| 20260504013717 | 5 | 0 | 0.0 | 0.0 | 0.00 | 0.00 | 0.00 | 63 | 1009.9 |
| 20260504013003 | 5 | 0 | 0.0 | 0.0 | 0.00 | 0.00 | 0.00 | 62 | 1009.9 |
| 20260504012503 | 5 | 0 | 0.0 | 0.0 | 0.00 | 0.00 | 0.00 | 61 | 1009.8 |
| 20260504012003 | 6 | 0 | 0.0 | 0.0 | 0.00 | 0.00 | 0.00 | 60 | 1009.7 |
| 20260504011503 | 6 | 0 | 0.0 | 0.0 | 0.00 | 0.00 | 0.00 | 60 | 1009.6 |
| 20260504011003 | 6 | 0 | 0.0 | 0.0 | 0.00 | 0.00 | 0.00 | 59 | 1009.5 |
| 20260504010503 | 6 | 0 | 0.0 | 0.0 | 0.00 | 0.00 | 0.00 | 58 | 1009.5 |
| 20260504010003 | 6 | 0 | 0.0 | 0.0 | 0.00 | 0.00 | 0.00 | 57 | 1009.4 |
| 20260504005503 | 7 | 0 | 0.0 | 0.0 | 0.00 | 0.00 | 0.00 | 57 | 1009.2 |
| 20260504005003 | 7 | 0 | 0.0 | 0.0 | 0.00 | 0.00 | 0.00 | 56 | 1009.0 |
| 20260504004503 | 7 | 0 | 0.0 | 0.0 | 0.00 | 0.00 | 0.00 | 54 | 1009.0 |
| 20260504004003 | 7 | 0 | 0.0 | 0.0 | 0.00 | 0.00 | 0.00 | 53 | 1008.9 |
| 20260504003503 | 8 | 0 | 0.0 | 0.0 | 0.00 | 0.00 | 0.00 | 51 | 1008.9 |
| 20260504003218 | 8 | 0 | 0.0 | 0.0 | 0.00 | 0.00 | 0.00 | 50 | 1008.8 |
| 20260504002503 | 8 | 0 | 0.0 | 0.0 | 0.00 | 0.00 | 0.00 | 48 | 1008.8 |
| 20260504002003 | 9 | 0 | 0.0 | 0.0 | 0.00 | 0.00 | 0.00 | 47 | 1008.7 |
| 20260504001503 | 10 | 0 | 0.0 | 0.0 | 0.00 | 0.00 | 0.00 | 45 | 1008.7 |
| 20260504001003 | 10 | 0 | 0.0 | 0.0 | 0.00 | 0.00 | 0.00 | 44 | 1008.6 |
| 20260504000503 | 10 | 0 | 0.0 | 0.0 | 0.00 | 0.00 | 0.00 | 43 | 1008.6 |
| 20260504000003 | 11 | 0 | 0.0 | 0.0 | 0.00 | 0.00 | 0.00 | 42 | 1008.5 |
| 20260503235503 | 11 | 0 | 0.0 | 0.0 | 0.00 | 0.00 | 0.00 | 40 | 1008.5 |
| 20260503235003 | 11 | 0 | 0.0 | 0.0 | 0.00 | 0.00 | 0.00 | 39 | 1008.4 |
| 20260503234503 | 11 | 0 | 0.0 | 0.0 | 0.00 | 0.00 | 0.00 | 38 | 1008.4 |
| 20260503234003 | 11 | 0 | 0.0 | 0.0 | 0.00 | 0.00 | 0.00 | 37 | 1008.4 |
| 20260503233503 | 11 | 0 | 0.0 | 0.0 | 0.00 | 0.00 | 0.00 | 38 | 1008.4 |
| 20260503233003 | 11 | 0 | 0.0 | 1.6 | 0.00 | 0.00 | 0.00 | 36 | 1008.4 |
| 20260503232503 | 11 | 0 | 0.0 | 4.8 | 0.00 | 0.00 | 0.00 | 36 | 1008.4 |